Location: Gro�sch�nbrunn
(49.5760°N, 11.8868°E)
Time: 17:27:12
(UTC+00:00)

ATLAS 2AS CENTAUR R/B - Pass Details

Date: 18 September 2020
Orbit: 939 x 1273 km, 63.7° (Epoch: 27 October)

Event Time Altitude Azimuth Distance (km) Brightness Sun altitude
Rises 19:13:21 0° 178° (S) 4,184 5.5 -18.8°
Reaches altitude 10° 19:16:30 10° 168° (SSE) 3,242 4.9 -19.2°
Enters shadow 19:16:58 12° 166° (SSE) 3,118 4.8 -19.3°
Exits shadow 19:24:46 27° 91° (E) 2,215 3.8 -20.4°
Drops below altitude 10° 19:29:38 10° 55° (NE) 3,249 5.0 -21.1°
Sets 19:32:47 0° 46° (NE) 4,194 5.7 -21.6°
